| time (UTC) | temp F | wind direction | speed knots | gust knots | rain 1hr in | rain 24hr in | rain mn in | humidity % | barometer mb |
| 20260504045420 | 71 | 0.0 | 0.0 | 0.00 | 0.00 | 0.00 | 49 | 1006.9 | |
| 20260504044920 | 72 | 0.0 | 0.0 | 0.00 | 0.00 | 0.00 | 48 | 1006.9 | |
| 20260504044419 | 72 | 0.0 | 0.0 | 0.00 | 0.00 | 0.00 | 47 | 1006.9 | |
| 20260504043419 | 72 | 0.0 | 0.0 | 0.00 | 0.00 | 0.00 | 46 | 1006.6 | |
| 20260504042919 | 72 | 0.0 | 0.0 | 0.00 | 0.00 | 0.00 | 46 | 1006.6 | |
| 20260504042419 | 72 | 0.0 | 0.0 | 0.00 | 0.00 | 0.00 | 46 | 1006.4 | |
| 20260504041920 | 73 | 0.0 | 0.0 | 0.00 | 0.00 | 0.00 | 46 | 1006.4 | |
| 20260504041420 | 73 | 0.0 | 0.0 | 0.00 | 0.00 | 0.00 | 46 | 1006.4 | |
| 20260504040419 | 74 | 0.0 | 0.0 | 0.00 | 0.00 | 0.00 | 45 | 1006.5 | |
| 20260504035919 | 74 | 0.0 | 0.0 | 0.00 | 0.00 | 0.00 | 44 | 1006.5 | |
| 20260504035419 | 75 | 0.0 | 0.0 | 0.00 | 0.00 | 0.00 | 44 | 1006.4 | |
| 20260504034919 | 75 | 0.0 | 0.0 | 0.00 | 0.00 | 0.00 | 42 | 1006.4 | |
| 20260504034419 | 76 | 0.0 | 0.0 | 0.00 | 0.00 | 0.00 | 41 | 1006.4 | |
| 20260504033919 | 76 | 0.0 | 0.0 | 0.00 | 0.00 | 0.00 | 39 | 1006.3 | |
| 20260504033419 | 77 | 0.0 | 0.0 | 0.00 | 0.00 | 0.00 | 38 | 1006.3 | |
| 20260504032919 | 77 | 0.0 | 0.0 | 0.00 | 0.00 | 0.00 | 38 | 1006.3 | |
| 20260504032419 | 78 | 0.0 | 0.0 | 0.00 | 0.00 | 0.00 | 38 | 1006.2 | |
| 20260504031919 | 79 | 0.0 | 0.0 | 0.00 | 0.00 | 0.00 | 37 | 1006.2 | |
| 20260504031419 | 79 | 0.0 | 0.0 | 0.00 | 0.00 | 0.00 | 36 | 1006.2 | |
| 20260504030919 | 79 | 0.0 | 0.0 | 0.00 | 0.00 | 0.00 | 35 | 1006.1 | |
| 20260504030419 | 80 | 0.0 | 0.0 | 0.00 | 0.00 | 0.00 | 35 | 1006.2 | |
| 20260504025919 | 80 | 0.0 | 0.0 | 0.00 | 0.00 | 0.00 | 35 | 1006.2 | |
| 20260504025419 | 80 | 0.0 | 0.0 | 0.00 | 0.00 | 0.00 | 35 | 1006.1 | |
| 20260504024919 | 81 | 0.0 | 0.0 | 0.00 | 0.00 | 0.00 | 36 | 1006.1 | |
| 20260504024419 | 81 | 0.0 | 0.0 | 0.00 | 0.00 | 0.00 | 35 | 1006.1 | |
| 20260504023919 | 81 | 0.0 | 0.0 | 0.00 | 0.00 | 0.00 | 35 | 1006.1 | |
| 20260504023419 | 82 | 0.0 | 0.0 | 0.00 | 0.00 | 0.00 | 34 | 1006.1 | |
| 20260504022919 | 82 | 0.0 | 0.0 | 0.00 | 0.00 | 0.00 | 35 | 1006.1 | |
| 20260504022419 | 82 | 0.0 | 0.0 | 0.00 | 0.00 | 0.00 | 35 | 1006.1 | |
| 20260504021918 | 83 | 0.0 | 0.0 | 0.00 | 0.00 | 0.00 | 36 | 1006.1 | |
| 20260504021418 | 83 | 0.0 | 0.0 | 0.00 | 0.00 | 0.00 | 33 | 1006.1 | |
| 20260504020918 | 83 | 0.0 | 0.0 | 0.00 | 0.00 | 0.00 | 32 | 1006.2 | |
| 20260504020418 | 84 | 0.0 | 0.0 | 0.00 | 0.00 | 0.00 | 30 | 1006.2 | |
| 20260504015918 | 84 | 0.0 | 0.0 | 0.00 | 0.00 | 0.00 | 30 | 1006.2 | |
| 20260504015418 | 84 | 0.0 | 0.0 | 0.00 | 0.00 | 0.00 | 31 | 1006.2 | |
| 20260504014918 | 85 | 0.0 | 1.7 | 0.00 | 0.00 | 0.00 | 32 | 1006.2 | |
| 20260504014418 | 85 | 0.0 | 1.7 | 0.00 | 0.00 | 0.00 | 29 | 1006.2 | |
| 20260504013918 | 85 | 0.0 | 0.9 | 0.00 | 0.00 | 0.00 | 28 | 1006.2 | |
| 20260504013418 | 85 | 0.0 | 1.7 | 0.00 | 0.00 | 0.00 | 27 | 1006.2 | |
| 20260504012918 | 85 | 0.0 | 1.7 | 0.00 | 0.00 | 0.00 | 28 | 1006.2 | |
| 20260504012417 | 85 | 0.0 | 1.7 | 0.00 | 0.00 | 0.00 | 28 | 1006.3 | |
| 20260504011918 | 85 | 0.0 | 1.7 | 0.00 | 0.00 | 0.00 | 28 | 1006.3 | |
| 20260504011417 | 85 | 0.0 | 0.0 | 0.00 | 0.00 | 0.00 | 29 | 1006.3 | |
| 20260504010917 | 86 | 0.0 | 0.0 | 0.00 | 0.00 | 0.00 | 31 | 1006.4 | |
| 20260504010417 | 86 | 0.0 | 0.9 | 0.00 | 0.00 | 0.00 | 30 | 1006.4 | |
| 20260504005918 | 86 | 0.0 | 0.9 | 0.00 | 0.00 | 0.00 | 29 | 1006.4 | |
| 20260504004417 | 87 | 0.0 | 2.6 | 0.00 | 0.00 | 0.00 | 29 | 1006.4 | |
| 20260504003417 | 87 | 0.9 | 2.6 | 0.00 | 0.00 | 0.00 | 30 | 1006.6 | |
| 20260504002417 | 87 | 0.9 | 4.3 | 0.00 | 0.00 | 0.00 | 27 | 1006.7 | |
| 20260503233916 | 88 | 1.7 | 3.5 | 0.00 | 0.00 | 0.00 | 26 | 1006.9 | |
| 20260503232416 | 87 | 0.0 | 4.3 | 0.00 | 0.00 | 0.00 | 27 | 1007.0 | |
| 20260503230917 | 87 | 0.0 | 3.5 | 0.00 | 0.00 | 0.00 | 27 | 1007.3 | |
| 20260503230416 | 87 | 0.0 | 4.3 | 0.00 | 0.00 | 0.00 | 28 | 1007.3 | |
| 20260503225416 | 87 | 0.9 | 3.5 | 0.00 | 0.00 | 0.00 | 27 | 1007.6 | |
| 20260503222416 | 87 | 0.9 | 4.3 | 0.00 | 0.00 | 0.00 | 31 | 1008.0 | |
| 20260503221417 | 88 | 0.0 | 0.9 | 0.00 | 0.00 | 0.00 | 32 | 1008.0 | |
| 20260503220417 | 87 | 0.0 | 3.5 | 0.00 | 0.00 | 0.00 | 36 | 1008.2 | |
| 20260503215916 | 87 | 0.9 | 3.5 | 0.00 | 0.00 | 0.00 | 34 | 1008.2 | |
| 20260503215417 | 87 | 0.0 | 3.5 | 0.00 | 0.00 | 0.00 | 38 | 1008.5 | |
| 20260503214916 | 86 | 2.6 | 4.3 | 0.00 | 0.00 | 0.00 | 39 | 1008.5 | |
| 20260503213916 | 86 | 0.0 | 2.6 | 0.00 | 0.00 | 0.00 | 36 | 1008.6 | |
| 20260503211417 | 84 | 0.0 | 4.3 | 0.00 | 0.00 | 0.00 | 38 | 1008.8 | |
| 20260503210417 | 85 | 0.0 | 2.6 | 0.00 | 0.00 | 0.00 | 41 | 1009.0 | |
| 20260503205917 | 84 | 0.0 | 4.3 | 0.00 | 0.00 | 0.00 | 45 | 1009.0 | |
| 20260503205417 | 83 | 0.0 | 4.3 | 0.00 | 0.00 | 0.00 | 44 | 1009.1 | |
| 20260503204416 | 83 | 0.9 | 4.3 | 0.00 | 0.00 | 0.00 | 43 | 1009.1 | |
| 20260503203916 | 83 | 2.6 | 3.5 | 0.00 | 0.00 | 0.00 | 46 | 1009.4 | |
| 20260503203416 | 82 | 0.0 | 4.3 | 0.00 | 0.00 | 0.00 | 45 | 1009.4 | |
| 20260503202916 | 81 | 1.7 | 4.3 | 0.00 | 0.00 | 0.00 | 46 | 1009.3 | |
| 20260503202417 | 81 | 1.7 | 4.3 | 0.00 | 0.00 | 0.00 | 46 | 1009.5 | |
| 20260503201916 | 81 | 0.0 | 4.3 | 0.00 | 0.00 | 0.00 | 46 | 1009.5 | |
| 20260503201417 | 81 | 0.0 | 4.3 | 0.00 | 0.00 | 0.00 | 48 | 1009.6 | |
| 20260503200417 | 81 | 0.0 | 3.5 | 0.00 | 0.00 | 0.00 | 49 | 1009.7 | |
| 20260503195916 | 81 | 2.6 | 3.5 | 0.00 | 0.00 | 0.00 | 47 | 1009.7 | |
| 20260503195416 | 80 | 0.0 | 3.5 | 0.00 | 0.00 | 0.00 | 52 | 1010.0 | |
| 20260503194416 | 79 | 2.6 | 5.2 | 0.00 | 0.00 | 0.00 | 49 | 1009.9 | |
| 20260503193916 | 79 | 0.0 | 5.2 | 0.00 | 0.00 | 0.00 | 49 | 1010.0 | |
| 20260503193416 | 79 | 0.0 | 3.5 | 0.00 | 0.00 | 0.00 | 52 | 1010.1 | |
| 20260503192916 | 78 | 0.0 | 4.3 | 0.00 | 0.00 | 0.00 | 51 | 1010.0 | |
| 20260503192416 | 78 | 0.0 | 4.3 | 0.00 | 0.00 | 0.00 | 53 | 1010.1 | |
| 20260503191916 | 78 | 1.7 | 4.3 | 0.00 | 0.00 | 0.00 | 52 | 1010.0 | |
| 20260503191416 | 77 | 0.0 | 4.3 | 0.00 | 0.00 | 0.00 | 52 | 1010.0 | |
| 20260503190916 | 78 | 3.5 | 4.3 | 0.00 | 0.00 | 0.00 | 52 | 1010.3 | |
| 20260503190415 | 77 | 0.0 | 3.5 | 0.00 | 0.00 | 0.00 | 51 | 1010.3 | |
| 20260503185915 | 77 | 0.0 | 4.3 | 0.00 | 0.00 | 0.00 | 52 | 1010.3 | |
| 20260503185415 | 77 | 0.0 | 4.3 | 0.00 | 0.00 | 0.00 | 51 | 1010.5 | |
| 20260503184915 | 77 | 0.0 | 4.3 | 0.00 | 0.00 | 0.00 | 54 | 1010.5 | |
| 20260503184415 | 77 | 2.6 | 4.3 | 0.00 | 0.00 | 0.00 | 50 | 1010.5 | |
| 20260503183915 | 77 | 0.0 | 2.6 | 0.00 | 0.00 | 0.00 | 50 | 1010.5 | |
| 20260503183415 | 77 | 0.0 | 0.9 | 0.00 | 0.00 | 0.00 | 48 | 1010.5 | |
| 20260503182915 | 77 | 0.0 | 2.6 | 0.00 | 0.00 | 0.00 | 54 | 1010.5 | |
| 20260503182415 | 76 | 0.0 | 2.6 | 0.00 | 0.00 | 0.00 | 55 | 1010.7 | |
| 20260503181915 | 75 | 1.7 | 3.5 | 0.00 | 0.00 | 0.00 | 51 | 1010.7 | |
| 20260503181415 | 75 | 0.0 | 4.3 | 0.00 | 0.00 | 0.00 | 51 | 1010.7 | |
| 20260503180915 | 75 | 0.9 | 4.3 | 0.00 | 0.00 | 0.00 | 51 | 1010.8 | |
| 20260503180415 | 75 | 2.6 | 3.5 | 0.00 | 0.00 | 0.00 | 52 | 1010.8 | |
| 20260503175915 | 75 | 0.9 | 4.3 | 0.00 | 0.00 | 0.00 | 52 | 1010.8 | |
| 20260503175415 | 75 | 0.0 | 4.3 | 0.00 | 0.00 | 0.00 | 52 | 1010.8 | |
| 20260503174914 | 75 | 0.0 | 2.6 | 0.00 | 0.00 | 0.00 | 53 | 1010.8 | |
| 20260503174414 | 74 | 0.0 | 3.5 | 0.00 | 0.00 | 0.00 | 56 | 1010.8 | |
| 20260503173914 | 74 | 2.6 | 3.5 | 0.00 | 0.00 | 0.00 | 54 | 1010.9 | |
| 20260503173414 | 74 | 0.9 | 2.6 | 0.00 | 0.00 | 0.00 | 56 | 1010.9 | |
| 20260503172914 | 74 | 0.0 | 3.5 | 0.00 | 0.00 | 0.00 | 55 | 1010.9 | |
| 20260503172414 | 74 | 0.9 | 3.5 | 0.00 | 0.00 | 0.00 | 55 | 1011.0 | |
| 20260503171914 | 73 | 0.0 | 0.9 | 0.00 | 0.00 | 0.00 | 58 | 1011.0 | |
| 20260503171414 | 73 | 0.0 | 0.0 | 0.00 | 0.00 | 0.00 | 56 | 1011.0 | |
| 20260503170914 | 73 | 0.0 | 0.0 | 0.00 | 0.00 | 0.00 | 62 | 1010.9 | |
| 20260503170414 | 73 | 0.0 | 0.0 | 0.00 | 0.00 | 0.00 | 62 | 1010.9 | |
| 20260503150913 | 61 | 0.0 | 0.0 | 0.00 | 0.00 | 0.00 | 86 | 1011.3 | |
| 20260503150413 | 61 | 0.0 | 0.0 | 0.00 | 0.00 | 0.00 | 88 | 1011.3 | |
| 20260503131412 | 50 | 0.0 | 0.0 | 0.00 | 0.00 | 0.00 | 96 | 1010.9 | |
| 20260503130912 | 50 | 0.0 | 0.0 | 0.00 | 0.00 | 0.00 | 96 | 1010.9 | |
| 20260503130411 | 50 | 0.0 | 0.0 | 0.00 | 0.00 | 0.00 | 96 | 1010.9 | |
| 20260503090409 | 54 | 0.0 | 0.0 | 0.00 | 0.00 | 0.00 | 90 | 1011.5 | |
| 20260503081408 | 56 | 0.0 | 0.0 | 0.00 | 0.00 | 0.00 | 89 | 1011.5 | |
| 20260503080908 | 56 | 0.0 | 0.0 | 0.00 | 0.00 | 0.00 | 89 | 1011.5 | |
| 20260503080408 | 56 | 0.0 | 0.0 | 0.00 | 0.00 | 0.00 | 88 | 1011.5 | |
| 20260503072908 | 57 | 0.0 | 0.0 | 0.00 | 0.00 | 0.00 | 87 | 1011.9 | |
| 20260503072408 | 57 | 0.0 | 0.0 | 0.00 | 0.00 | 0.00 | 87 | 1011.9 | |
| 20260503071907 | 57 | 0.0 | 0.0 | 0.00 | 0.00 | 0.00 | 86 | 1011.9 | |
| 20260503071408 | 57 | 0.0 | 0.0 | 0.00 | 0.00 | 0.00 | 86 | 1011.9 | |
| 20260503070407 | 58 | 0.0 | 0.0 | 0.00 | 0.00 | 0.00 | 85 | 1011.9 | |
| 20260503054906 | 60 | 0.0 | 0.0 | 0.00 | 0.00 | 0.00 | 80 | 1011.7 | |
| 20260503054407 | 61 | 0.0 | 0.0 | 0.00 | 0.00 | 0.00 | 80 | 1011.8 | |
| 20260503053907 | 61 | 0.0 | 0.0 | 0.00 | 0.00 | 0.00 | 79 | 1011.9 | |
| 20260503053406 | 61 | 0.0 | 0.0 | 0.00 | 0.00 | 0.00 | 79 | 1011.9 | |
| 20260503052906 | 61 | 0.0 | 0.0 | 0.00 | 0.00 | 0.00 | 79 | 1011.9 | |
| 20260503052407 | 61 | 0.0 | 0.0 | 0.00 | 0.00 | 0.00 | 79 | 1011.7 | |
| 20260503051906 | 61 | 0.0 | 0.0 | 0.00 | 0.00 | 0.00 | 79 | 1011.7 | |
| 20260503051406 | 62 | 0.0 | 0.0 | 0.00 | 0.00 | 0.00 | 78 | 1011.7 | |
| 20260503050936 | 62 | 0.0 | 0.0 | 0.00 | 0.00 | 0.00 | 78 | 1011.7 | |
| 20260503050406 | 62 | 0.0 | 0.0 | 0.00 | 0.00 | 0.00 | 78 | 1011.7 | |
| 20260503045936 | 62 | 0.0 | 0.0 | 0.00 | 0.00 | 0.00 | 77 | 1011.7 |